Weather History for New Richmond, WI

Change the Weather History Date:

Thursday, April 11, 2013

  Actual Average (KMSP) Record (KMSP)
Temperature  
Mean Temperature 32 °F 45 °F  
Max Temperature 35 °F 56 °F 83 °F (1968)
Min Temperature 30 °F 35 °F 12 °F (1940)
Degree Days  
Heating Degree Days 32 20  
Month to date heating degree days 245  
Since 1 July heating degree days 7033  
Cooling Degree Days 0 0  
Month to date cooling degree days 0  
Year to date cooling degree days 0  
Moisture  
Dew Point 28 °F    
Average Humidity 86    
Maximum Humidity 100    
Minimum Humidity 52    
Precipitation  
Precipitation 0.27 in 0.08 in 1.58 in (1887)
Month to date precipitation 0.85  
Year to date precipitation 4.41  
Snow  
Snow 0.00 in 0.10 in 5.70 in (1929)
Month to date snowfall 1.2  
Since 1 July snowfall 53.2  
Snow Depth -    
Sea Level Pressure  
Sea Level Pressure 29.76 in    
Wind  
Wind Speed 13 mph (ENE)    
Max Wind Speed 20 mph    
Max Gust Speed 29 mph    
Visibility 5 miles    
Events Rain , Snow    
T = Trace of Precipitation, MM = Missing Value Source: NWS Daily Summary

Daily Weather History Graph

Daily Weather History Graph

Search for Another Location

Airport:

Trip Planner

Search our weather history database for the weather conditions in past years. The results will help you decide how hot, cold, wet, or windy it might be!

Date:

Astronomy

Apr. 11, 2013 Rise Set
Actual Time 6:31 AM CDT 7:51 PM CDT
Civil Twilight 6:01 AM CDT 8:21 PM CDT
Nautical Twilight 5:24 AM CDT 8:58 PM CDT
Astronomical Twilight 4:45 AM CDT 9:37 PM CDT
Moon 6:59 AM CDT (4/11) 9:31 PM CDT (4/11)
Length of Visible Light 14h 20m
Length of Day
13h 19m
New Moon, 2% of the Moon is Illuminated
Apr 11
New Moon
Apr 18
First Quarter
Apr 25
Full
May 2
Last Quarter
May 9
New

Hourly Weather History & Observations

Time (CDT) Temp. Windchill Dew Point Humidity Pressure Visibility Wind Dir Wind Speed Gust Speed Precip Events Conditions
12:15 AM 35.6 °F 29.2 °F 24.8 °F 65% 29.92 in 10.0 mi NE 8.1 mph - N/A   Overcast
12:35 AM 35.6 °F 28.6 °F 24.8 °F 65% 29.92 in 10.0 mi NE 9.2 mph - N/A   Overcast
12:55 AM 35.6 °F 27.5 °F 23.0 °F 60% 29.91 in 10.0 mi NE 11.5 mph - N/A   Overcast
1:15 AM 35.6 °F 26.6 °F 23.0 °F 60% 29.90 in 10.0 mi ENE 13.8 mph - N/A   Overcast
1:35 AM 35.6 °F 25.9 °F 21.2 °F 56% 29.90 in 10.0 mi ENE 16.1 mph 20.7 mph N/A   Overcast
1:55 AM 35.6 °F 25.5 °F 21.2 °F 56% 29.87 in 10.0 mi ENE 17.3 mph 24.2 mph N/A   Overcast
2:15 AM 35.6 °F 25.9 °F 19.4 °F 52% 29.88 in 10.0 mi ENE 16.1 mph 20.7 mph N/A   Overcast
2:35 AM 33.8 °F 23.9 °F 19.4 °F 56% 29.86 in 10.0 mi ENE 15.0 mph 21.9 mph N/A Rain Light Rain
2:55 AM 33.8 °F 23.5 °F 21.2 °F 60% 29.85 in 10.0 mi ENE 16.1 mph - N/A Rain Light Rain
3:15 AM 33.8 °F 24.3 °F 19.4 °F 56% 29.84 in 10.0 mi East 13.8 mph 19.6 mph N/A Rain Light Rain
3:35 AM 33.8 °F 23.5 °F 19.4 °F 56% 29.83 in 10.0 mi East 16.1 mph 26.5 mph N/A   Light Drizzle
3:55 AM 33.8 °F 22.5 °F 17.6 °F 52% 29.83 in 10.0 mi East 19.6 mph 24.2 mph N/A   Light Drizzle
4:15 AM 33.8 °F 23.2 °F 19.4 °F 56% 29.82 in 10.0 mi ENE 17.3 mph 28.8 mph N/A   Overcast
4:35 AM 33.8 °F 22.5 °F 19.4 °F 56% 29.80 in 10.0 mi ENE 19.6 mph 25.3 mph N/A   Overcast
4:55 AM 32.0 °F 21.2 °F 23.0 °F 69% 29.79 in 7.0 mi ENE 16.1 mph 25.3 mph N/A Rain Light Rain
5:15 AM 32.0 °F 21.6 °F 23.0 °F 69% 29.77 in 10.0 mi ENE 15.0 mph 23.0 mph N/A   Overcast
5:35 AM 32.0 °F 20.1 °F 23.0 °F 69% 29.75 in 7.0 mi ENE 19.6 mph 24.2 mph N/A Rain Light Rain
5:55 AM 32.0 °F 20.8 °F 24.8 °F 75% 29.73 in 10.0 mi ENE 17.3 mph 23.0 mph N/A Rain Light Rain
6:15 AM 32.0 °F 22.1 °F 23.0 °F 69% 29.72 in 10.0 mi ENE 13.8 mph 27.6 mph N/A   Overcast
6:35 AM 32.0 °F 27.5 °F 24.8 °F 75% 29.79 in 7.0 mi East 4.6 mph 19.6 mph N/A Rain Rain
6:55 AM 32.0 °F 28.7 °F 26.6 °F 80% 29.84 in 2.0 mi SE 3.5 mph - N/A Snow Light Snow
7:15 AM 32.0 °F - 30.2 °F 93% 29.84 in 1.2 mi Calm Calm - N/A Snow Light Snow
7:35 AM 32.0 °F 26.4 °F 30.2 °F 93% 29.83 in 0.8 mi ENE 5.8 mph - N/A Snow Light Snow
7:55 AM 30.2 °F 22.6 °F 30.2 °F 100% 29.81 in 0.2 mi ENE 8.1 mph - N/A Snow Snow
8:15 AM 30.2 °F 21.9 °F 30.2 °F 100% 29.80 in 0.2 mi NE 9.2 mph - N/A Snow Snow
8:35 AM 30.2 °F 22.6 °F 30.2 °F 100% 29.81 in 0.8 mi NE 8.1 mph - N/A Snow Light Snow
8:55 AM 30.2 °F 20.8 °F 30.2 °F 100% 29.79 in 0.8 mi NE 11.5 mph - N/A Snow Light Snow
9:15 AM 32.0 °F 22.1 °F 32.0 °F 100% 29.78 in 0.5 mi ENE 13.8 mph 18.4 mph N/A Snow Light Snow
9:35 AM 32.0 °F 23.0 °F 32.0 °F 100% 29.78 in 0.8 mi ENE 11.5 mph - N/A Snow Light Snow
9:55 AM 32.0 °F 23.6 °F 30.2 °F 93% 29.78 in 1.2 mi ENE 10.4 mph - N/A Snow Light Snow
10:15 AM 32.0 °F 24.2 °F 32.0 °F 100% 29.79 in 2.0 mi ENE 9.2 mph - N/A   Overcast
10:35 AM 32.0 °F 21.2 °F 32.0 °F 100% 29.77 in 1.2 mi ENE 16.1 mph 19.6 mph N/A Snow Light Snow
10:55 AM 32.0 °F 20.8 °F 32.0 °F 100% 29.76 in 1.2 mi ENE 17.3 mph 21.9 mph N/A Snow Light Snow
11:15 AM 32.0 °F 21.6 °F 32.0 °F 100% 29.77 in 1.8 mi ENE 15.0 mph 24.2 mph N/A Snow Light Snow
11:35 AM 32.0 °F 21.2 °F 32.0 °F 100% 29.78 in 2.0 mi East 16.1 mph 25.3 mph N/A Snow Light Snow
12:15 PM 33.8 °F 24.8 °F 32.0 °F 93% 29.77 in 1.8 mi East 12.7 mph 19.6 mph 0.01 in Snow Light Snow
12:35 PM 33.8 °F 23.2 °F 32.0 °F 93% 29.75 in 2.0 mi ENE 17.3 mph 23.0 mph 0.01 in Snow Light Snow
12:55 PM 33.8 °F 23.5 °F 32.0 °F 93% 29.75 in 3.0 mi East 16.1 mph 23.0 mph 0.05 in Snow Light Snow
1:15 PM 33.8 °F 23.9 °F 32.0 °F 93% 29.74 in 4.0 mi ENE 15.0 mph 20.7 mph 0.04 in   Overcast
1:35 PM 33.8 °F 22.5 °F 32.0 °F 93% 29.73 in 5.0 mi East 19.6 mph 26.5 mph 0.08 in   Overcast
1:55 PM 33.8 °F 23.2 °F 30.2 °F 87% 29.71 in 4.0 mi ENE 17.3 mph 25.3 mph 0.12 in   Haze
2:15 PM 33.8 °F 23.9 °F 30.2 °F 87% 29.72 in 7.0 mi ENE 15.0 mph 26.5 mph 0.03 in   Overcast
2:35 PM 33.8 °F 24.8 °F 30.2 °F 87% 29.72 in 7.0 mi ENE 12.7 mph 23.0 mph 0.04 in   Overcast
2:55 PM 33.8 °F 24.8 °F 30.2 °F 87% 29.71 in 5.0 mi ENE 12.7 mph 17.3 mph 0.06 in   Overcast
3:15 PM 33.8 °F 24.8 °F 30.2 °F 87% 29.72 in 7.0 mi ENE 12.7 mph 24.2 mph 0.01 in   Overcast
3:35 PM 33.8 °F 23.2 °F 30.2 °F 87% 29.71 in 10.0 mi East 17.3 mph 25.3 mph 0.02 in   Overcast
3:55 PM 33.8 °F 23.9 °F 30.2 °F 87% 29.71 in 7.0 mi East 15.0 mph 18.4 mph 0.03 in   Overcast
4:15 PM 33.8 °F 24.8 °F 30.2 °F 87% 29.71 in 5.0 mi ENE 12.7 mph 16.1 mph N/A   Overcast
4:35 PM 32.0 °F 24.2 °F 32.0 °F 100% 29.71 in 3.0 mi ENE 9.2 mph - 0.01 in   Overcast
4:55 PM 32.0 °F 23.0 °F 32.0 °F 100% 29.72 in 2.0 mi ENE 11.5 mph 19.6 mph 0.01 in   Overcast
5:15 PM 32.0 °F 21.6 °F 32.0 °F 100% 29.71 in 3.0 mi ENE 15.0 mph - N/A   Overcast
5:35 PM 32.0 °F 22.5 °F 32.0 °F 100% 29.72 in 5.0 mi ENE 12.7 mph - N/A   Overcast
5:55 PM 32.0 °F 22.1 °F 32.0 °F 100% 29.71 in 3.0 mi ENE 13.8 mph 19.6 mph N/A   Overcast
6:15 PM 32.0 °F 22.1 °F 32.0 °F 100% 29.72 in 4.0 mi ENE 13.8 mph 21.9 mph N/A   Overcast
6:35 PM 32.0 °F 21.6 °F 32.0 °F 100% 29.71 in 4.0 mi ENE 15.0 mph 18.4 mph N/A   Overcast
6:55 PM 32.0 °F 21.6 °F 32.0 °F 100% 29.71 in 3.0 mi ENE 15.0 mph 19.6 mph N/A   Overcast
7:15 PM 32.0 °F 22.5 °F 32.0 °F 100% 29.70 in 2.0 mi ENE 12.7 mph - N/A   Overcast
7:35 PM 32.0 °F 21.6 °F 32.0 °F 100% 29.70 in 1.8 mi ENE 15.0 mph 20.7 mph N/A Snow Light Snow
7:55 PM 32.0 °F 21.6 °F 32.0 °F 100% 29.69 in 1.8 mi ENE 15.0 mph 19.6 mph N/A Snow Light Snow
8:15 PM 32.0 °F 23.0 °F 32.0 °F 100% 29.70 in 1.5 mi ENE 11.5 mph - N/A Snow Light Snow
8:35 PM 32.0 °F 21.6 °F 32.0 °F 100% 29.70 in 5.0 mi ENE 15.0 mph 19.6 mph N/A   Overcast
8:55 PM 32.0 °F 23.0 °F 30.2 °F 93% 29.71 in 1.5 mi ENE 11.5 mph 18.4 mph N/A Snow Light Snow
9:15 PM 32.0 °F 22.5 °F 30.2 °F 93% 29.71 in 4.0 mi ENE 12.7 mph - N/A Snow Light Snow
9:35 PM 32.0 °F 22.1 °F 30.2 °F 93% 29.70 in 3.0 mi ENE 13.8 mph - N/A Snow Light Snow
9:55 PM 32.0 °F 23.0 °F 30.2 °F 93% 29.71 in 5.0 mi NE 11.5 mph - N/A Snow Light Snow
10:15 PM 30.2 °F 20.2 °F 30.2 °F 100% 29.70 in 5.0 mi ENE 12.7 mph - N/A Snow Light Snow
10:35 PM 30.2 °F 21.9 °F 30.2 °F 100% 29.70 in 5.0 mi NE 9.2 mph - N/A Snow Light Snow
10:55 PM 30.2 °F 20.8 °F 30.2 °F 100% 29.70 in 2.0 mi NE 11.5 mph - N/A Snow Light Snow
11:15 PM 30.2 °F 21.9 °F 30.2 °F 100% 29.69 in 4.0 mi NE 9.2 mph - N/A Snow Light Snow
11:35 PM 30.2 °F 21.9 °F 30.2 °F 100% 29.70 in 3.0 mi NE 9.2 mph - N/A Snow Light Snow
11:55 PM 30.2 °F 21.3 °F 30.2 °F 100% 29.70 in 2.5 mi NE 10.4 mph - N/A Snow Light Snow